Regional Weather Roundup
Issued by NWS Kansas City/Pleasant Hill, MO

Home | Current Version | Previous Version | Text Only | Print | Product List | Glossary On
Versions: 1 2 3 4 5 6 7 8 9 10 11 12 13 14 15 16 17 18 19 20 21 22 23 24 25 26 27 28 29 30 31 32 33 34 35 36 37 38 39 40 41 42 43 44 45 46 47 48 49 50
000
ASUS43 KEAX 010211
RWREAX

WEATHER ROUNDUP FOR EASTERN KANSAS AND NORTHWEST MISSOURI
NATIONAL WEATHER SERVICE KANSAS CITY/PLEASANT HILL MO
900 PM CDT THU JUL 31 2014

KSZ040-057-103>105-MOZ028-029-037-043-010300-
...KANSAS CITY METROPOLITAN AREA...

CITY           SKY/WX    TMP DP  RH WIND       PRES   REMARKS
K.C. INTL      CLOUDY    76  56  49 E6        30.05R
K.C. DOWNTOWN  MOCLDY    78  56  46 E5        30.03R
LEES SUMMIT    PTCLDY    75  59  57 SE5       30.05R
OLATHE - IXD   PTCLDY    75  58  55 SE6       30.05S
OLATHE - OJC   PTCLDY    74  59  59 SE5       30.04S
LAWRENCE       PTCLDY    71  63  75 NE5       30.03S

$$

MOZ001>008-011>017-020>025-030>033-038>040-044>046-053-054-010300-
...NORTHERN AND CENTRAL MISSOURI...

CITY           SKY/WX    TMP DP  RH WIND       PRES   REMARKS
ST. JOSEPH     MOCLDY    75  60  59 SE5       30.03F
MOSBY          MOCLDY    70  61  73 CALM      30.04R
WARRENSBURG    PTCLDY    72  61  68 CALM      30.05R
WHITEMAN AFB   NOT AVBL
CLINTON        CLEAR     73  63  68 CALM      30.05R
SEDALIA        PTCLDY    72  60  66 NE5       30.06R
WARSAW         NOT AVBL
MARSHALL       CLEAR     73  61  64 CALM      30.05S
CHILLICOTHE      N/A     70  61  73 CALM      30.05S
MOBERLY        CLEAR     70  59  68 CALM      30.06R
KIRKSVILLE     CLEAR     67  62  84 CALM      30.06S

$$

MOZ041-047>049-056>058-063>065-088>090-097-010300-
...EASTERN AND SOUTHERN MISSOURI...

CITY           SKY/WX    TMP DP  RH WIND       PRES   REMARKS
ST. LOUIS INTL PTCLDY    79  60  52 E5        30.05S
SPIRIT OF STL  MOCLDY    75  59  57 E5        30.03S
COLUMBIA       CLEAR     73  58  59 N6        30.05S
JEFFERSON CITY CLEAR     77  56  48 N5        30.03R
MEXICO         CLEAR     68  64  88 CALM      30.06S
HANNIBAL       CLEAR     68  59  73 CALM      30.06S
ROLLA          MOCLDY    74  55  51 E5        30.04S
LEBANON        CLEAR     73  63  68 SW6       30.07R
OSAGE BEACH      N/A     72  57  60 NE3       30.04S
SPRINGFIELD    CLEAR     70  64  81 S6        30.06S
BRANSON        MOCLDY    68  66  94 E3        30.08S
NEVADA         CLEAR     72  63  73 CALM      30.05S
JOPLIN         CLEAR     72  67  84 S5        30.06R
WEST PLAINS    PTCLDY    67  63  87 CALM      30.09R
MALDEN         MOCLDY    72  66  83 CALM      30.07R

$$

IAZ060-094-KSZ022-034>040-054-083-096-NEZ052-066-093-010300-
...KANSAS...SOUTHEAST NEBRASKA AND IOWA...

CITY           SKY/WX    TMP DP  RH WIND       PRES   REMARKS
TOPEKA         PTCLDY    76  58  53 CALM      30.03R
MANHATTAN      CLEAR     75  58  55 CALM      30.02R
EMPORIA        CLEAR     71  58  63 SE6       30.04F
CHANUTE        CLEAR     69  61  75 SE3       30.04F
WICHITA        PTCLDY    73  56  54 SE6       30.05R
OMAHA          MOCLDY    75  58  55 E8        30.01R
LINCOLN        CLOUDY    80  54  40 SE12      29.99S
FALLS CITY     MOCLDY    71  59  65 SE6       30.01F
LAMONI         CLEAR     75  55  49 S3        30.04F
DES MOINES     CLOUDY    71  63  75 CALM      30.03F

$$




USA.gov is the U.S. government's official web portal to all federal, state and local government web resources and services.